Location: Artiguedieu
(43.5000°N, 0.5454°E)
Time: 02:15:37
(UTC+00:00)

Transit 2A Rocket - Pass Details

Date: 30 July 2021
Orbit: 586 x 916 km, 66.7° (Epoch: 16 September)

Event Time Altitude Azimuth Distance (km) Brightness Sun altitude
Rises 13:31:28 0° 179° (S) 2,817 8.2 58.9°
Reaches altitude 10° 13:33:55 10° 166° (SSE) 1,943 7.5 58.6°
Maximum altitude 13:37:31 26° 110° (ESE) 1,243 6.3 58.1°
Drops below altitude 10° 13:41:20 10° 54° (NE) 2,069 7.0 57.6°
Sets 13:44:02 0° 42° (NE) 3,042 7.8 57.3°
